Location: Unspecified
(0.0000°N, 0.0000°E)
Time: 23:36:52
(UTC+00:00)

Envisat - Pass Details

Date: 21 January 2021
Orbit: 764 x 766 km, 98.1° (Epoch: 16 January)

Event Time Altitude Azimuth Distance (km) Brightness Sun altitude
Rises 05:34:47 0° 5° (N) 3,214 6.1 -8.6°
Reaches altitude 10° 05:37:06 10° 2° (N) 2,291 5.3 -8.0°
Maximum altitude 05:42:04 60° 282° (WNW) 868 3.0 -6.9°
Drops below altitude 10° 05:47:04 10° 202° (SSW) 2,302 5.5 -5.7°
Sets 05:49:24 0° 199° (SSW) 3,230 6.3 -5.2°
